Voltar ao catálogo

ONEWEB-0355

AtivoComunicaçõesPO
NORAD 49218·PAYLOAD·🇬🇧 United Kingdom

Lançado Sep 14, 2021 de Baikonur Cosmodrome

Loading…

Próximas Passagens (próximas 24 horas)

TLE

AtualizadoSource: CelesTrak SupGP

Época: Sep 14, 2026, 19:29 UTC

1 49218C 21083AJ  26257.81231896 -.00001745  00000+0 -47854-2 0  2573
2 49218  87.8925 302.4021 0001730  93.2508   3.4843 13.13474413    19

Acompanhe ONEWEB-0355 em tempo real com AllMySat

Download on the App Store